Overview Statistics Trail Chart Weather Telemetry Raw packets
 

This is the latest recevied weather packets stored in our database for station/object NK7E-2. If no packets are shown the sender has not sent any weather packets the latest 10 day(s).

<< 9 10 11 12 13 14 15 >>
Time Temp. Humidity Pressure Rain* Wind** Luminosity Snow
1788305417 32.78° C 36% 1026 hPa 0 mm - - -
1788304817 32.78° C 34% 1025.9 hPa 0 mm - - -
1788304217 32.78° C 35% 1026 hPa 0 mm - - -
1788303617 32.78° C 34% 1026.1 hPa 0 mm - - -
1788303017 32.22° C 34% 1026.1 hPa 0 mm - - -
1788302417 32.78° C 37% 1026.5 hPa 0 mm - - -
1788301817 32.78° C 36% 1026.7 hPa 0 mm - - -
1788301217 33.33° C 36% 1026.7 hPa 0 mm - - -
1788300617 32.78° C 35% 1027.1 hPa 0 mm - - -
1788300017 32.78° C 35% 1027 hPa 0 mm - - -
1788299417 32.22° C 35% 1026.9 hPa 0 mm - - -
1788298817 32.78° C 35% 1027.2 hPa 0 mm - - -
1788298217 32.22° C 36% 1027.2 hPa 0 mm - - -
1788297617 32.22° C 37% 1027.4 hPa 0 mm - - -
1788297017 32.22° C 37% 1027.3 hPa 0 mm - - -
1788296417 31.67° C 38% 1027.4 hPa 0 mm - - -
1788295817 31.67° C 40% 1027.7 hPa 0 mm - - -
1788295217 31.67° C 41% 1027.7 hPa 0 mm - - -
1788294631 31.67° C 40% 1027.8 hPa 0 mm - - -
1788294017 31.67° C 40% 1027.8 hPa 0 mm - - -
1788293417 31.11° C 42% 1027.7 hPa 0 mm - - -
1788292817 30.56° C 42% 1027.8 hPa 0 mm - - -
1788292217 30.56° C 43% 1027.9 hPa 0 mm - - -
1788291617 30° C 43% 1027.9 hPa 0 mm - - -
1788291017 30° C 43% 1028.2 hPa 0 mm - - -

* Rain latest hour (hover to see other rain measurements)
** Current wind speed in m/s (hover to see current wind gust speed)